Du Bois, PA

6:42 AM EDT on April 25, 2017 (GMT -0400)
Du Bois-Jefferson County

Weather History for KDUJ - May, 2012

Change the Weather History Date:

Friday, May 18, 2012

  Actual Average Record
Temperature  
Mean Temperature 58 °F 57 °F  
Max Temperature 75 °F 68 °F 85 °F (1986)
Min Temperature 40 °F 46 °F 32 °F (2002)
Degree Days  
Heating Degree Days 7 9  
Month to date heating degree days 110 195  
Since 1 July heating degree days 5211 6708  
Cooling Degree Days 0 1  
Month to date cooling degree days 14 6  
Year to date cooling degree days 19 10  
Growing Degree Days 6 (Base 50)    
Moisture  
Dew Point 36 °F    
Average Humidity 55    
Maximum Humidity 85    
Minimum Humidity 25    
Precipitation  
Precipitation 0.00 in 0.14 in 1.78 in (2004)
Month to date precipitation 3.06 2.37  
Sea Level Pressure  
Sea Level Pressure 30.16 in    
Wind  
Wind Speed 5 mph (ESE)    
Max Wind Speed 13 mph    
Max Gust Speed 17 mph    
Visibility 10 miles    
Events      
T = Trace of Precipitation, MM = Missing Value Source: NWS Daily Summary

Daily Weather History Graph

Daily Weather History Graph

Search for Another Location

Airport or City:

Trip Planner

Search our weather history database for the weather conditions in past years. The results will help you decide how hot, cold, wet, or windy it might be!

Date:

Astronomy

May. 18, 2012 Rise Set
Actual Time 5:54 AM EDT 8:30 PM EDT
Civil Twilight 5:22 AM EDT 9:02 PM EDT
Nautical Twilight 4:42 AM EDT 9:42 PM EDT
Astronomical Twilight 3:58 AM EDT 10:27 PM EDT
Moon 4:23 AM EDT (5/18) 6:37 PM EDT (5/18)
Length of Visible Light 15h 39m
Length of Day
14h 36m
Waning Crescent, 5% of the Moon is Illuminated
May 18
Waning Crescent
May 20
New
May 28
First Quarter
Jun 4
Full
Jun 11
Last Quarter

Hourly Weather History & Observations

Time (EDT) Temp. Windchill Dew Point Humidity Pressure Visibility Wind Dir Wind Speed Gust Speed Precip Events Conditions
12:56 AM 45.0 °F 43.5 °F 36.0 °F 71% 30.15 in 10.0 mi ENE 3.5 mph - N/A   Clear
1:56 AM 44.1 °F 40.1 °F 35.1 °F 71% 30.15 in 10.0 mi East 6.9 mph - N/A   Clear
2:56 AM 43.0 °F 39.5 °F 35.1 °F 74% 30.14 in 10.0 mi East 5.8 mph - N/A   Clear
3:56 AM 44.1 °F 40.1 °F 35.1 °F 71% 30.15 in 10.0 mi East 6.9 mph - N/A   Clear
4:56 AM 41.0 °F 38.0 °F 35.1 °F 79% 30.16 in 10.0 mi East 4.6 mph - N/A   Clear
5:56 AM 39.9 °F 36.7 °F 35.1 °F 83% 30.16 in 10.0 mi East 4.6 mph - N/A   Clear
6:56 AM 44.1 °F 40.8 °F 37.0 °F 76% 30.17 in 10.0 mi East 5.8 mph - N/A   Clear
7:56 AM 50.0 °F - 37.9 °F 63% 30.19 in 10.0 mi East 5.8 mph - N/A   Clear
8:56 AM 55.0 °F - 37.9 °F 53% 30.20 in 10.0 mi ESE 5.8 mph - N/A   Clear
9:56 AM 59.0 °F - 39.9 °F 49% 30.20 in 10.0 mi SSE 6.9 mph - N/A   Clear
10:56 AM 64.9 °F - 39.0 °F 39% 30.19 in 10.0 mi ESE 8.1 mph - N/A   Clear
11:56 AM 68.0 °F - 39.0 °F 35% 30.19 in 10.0 mi ESE 9.2 mph - N/A   Clear
12:56 PM 70.0 °F - 37.0 °F 30% 30.19 in 10.0 mi ESE 8.1 mph - N/A   Clear
1:56 PM 70.0 °F - 36.0 °F 29% 30.17 in 10.0 mi SE 8.1 mph - N/A   Clear
2:56 PM 72.0 °F - 36.0 °F 27% 30.16 in 10.0 mi Variable 3.5 mph - N/A   Clear
3:56 PM 73.9 °F - 37.0 °F 26% 30.14 in 10.0 mi Calm Calm - N/A   Clear
4:56 PM 73.9 °F - 37.9 °F 27% 30.14 in 10.0 mi ESE 5.8 mph - N/A   Clear
5:56 PM 73.9 °F - 35.1 °F 24% 30.13 in 10.0 mi Calm Calm - N/A   Clear
6:56 PM 72.0 °F - 37.0 °F 28% 30.12 in 10.0 mi SE 3.5 mph - N/A   Clear
7:56 PM 69.1 °F - 35.1 °F 29% 30.12 in 10.0 mi SSE 3.5 mph - N/A   Clear
8:56 PM 66.0 °F - 35.1 °F 32% 30.12 in 10.0 mi SSE 4.6 mph - N/A   Clear
9:56 PM 64.9 °F - 34.0 °F 32% 30.13 in 10.0 mi SSE 4.6 mph - N/A   Clear
10:56 PM 63.0 °F - 36.0 °F 37% 30.14 in 10.0 mi SSE 4.6 mph - N/A   Clear
11:56 PM 61.0 °F - 37.0 °F 41% 30.14 in 10.0 mi SSE 3.5 mph - N/A   Clear